Lexington Weather

Lexington, Massachusetts, USA

47°F
10/22/2019 3:07am 
  • Lexington Conditions: Haze, Overcast
  • Temperature: 47.3°F / 8.5°CWarmer 1.1°F than last hour.
  • Dew Point: 45.9°FIncreased 1.3°Fsince last hour.
  • Relative Humidity: 95%Increased 1.0% since last hour.
  • Wind: Calm, 10-min avg: Calm, gust: None
  • Barometer: 30.12 in Steady
  • Visibility: 1½ miles
  • Rain Today: 0.00 in
  •   

Regional Weather Roundup
for Boston, MA

        
000
ASUS41 KBOX 200900
RWRBOX

REGIONAL WEATHER ROUNDUP
NATIONAL WEATHER SERVICE BOSTON/NORTON MA
500 AM EDT SUN OCT 20 2019

NOTE:  "FAIR" INDICATES FEW OR NO CLOUDS BELOW 12,000 FEET WITH NO 
SIGNIFICANT WEATHER AND/OR OBSTRUCTIONS TO VISIBILITY.

MAZALL-201000-
EASTERN MASSACHUSETTS
  
CITY           SKY/WX    TMP DP  RH WIND       PRES   REMARKS
BOSTON         FAIR      46  35  65 N5        30.06F                  
BEVERLY        FAIR      37  34  89 N3        30.06F                  
LAWRENCE       FAIR      36  33  89 CALM      30.09F                  
BEDFORD        FAIR      35  30  82 CALM      30.06F                  
BLUE HILL      NOT AVBL                                               
NORWOOD        FAIR      33  28  81 CALM      30.06S                  
MARSHFIELD     NOT AVBL                                               
PLYMOUTH       FAIR      34  33  96 CALM      30.06S                  
TAUNTON        FAIR      31  28  89 CALM      30.06S FOG              
NEW BEDFORD    FAIR      34  32  92 CALM      30.05F                  
$$

MAZALL-201000-
CAPE COD AND THE ISLANDS
  
CITY           SKY/WX    TMP DP  RH WIND       PRES   REMARKS
FALMOUTH       CLEAR     34  34 100 CALM      30.07R                  
HYANNIS        NOT AVBL                                               
CHATHAM        NOT AVBL                                               
PROVINCETOWN   FAIR      34  32  92 CALM        N/A                   
NANTUCKET      FAIR      41  39  93 CALM      30.07R                  
MARTHAS VNYRD  MOCLDY    31  29  92 CALM      30.06R                  
$$
 
MAZALL-201000-
CENTRAL AND WESTERN MASSACHUSETTS
  
CITY           SKY/WX    TMP DP  RH WIND       PRES   REMARKS
WORCESTER      FAIR      44  32  62 N6        30.04S                  
FITCHBURG      FAIR      33  29  85 NW5       30.08S WCI  29          
ORANGE         FAIR      31  27  85 CALM      30.08R                  
SPRINGFIELD    FAIR      31  30  97 NE3       30.05S                  
WESTFIELD      FAIR      32  30  92 CALM      30.06S                  
NORTH ADAMS    FAIR      30  27  88 CALM      30.05F                  
PITTSFIELD     FAIR      31  28  89 CALM      30.02F                  
$$
 
RIZALL-201000-
RHODE ISLAND
  
CITY           SKY/WX    TMP DP  RH WIND       PRES   REMARKS
PROVIDENCE     FAIR      38  37  97 CALM      30.06F                  
NEWPORT        FAIR      43  40  89 N3        30.05S FOG              
BLOCK ISLAND   FAIR      49  44  83 CALM      30.06S                  
SMITHFIELD     FAIR     N/A N/A N/A NE5       30.05S                  
WESTERLY       FAIR      40  37  89 N3        30.05F                  
$$
 
CTZALL-201000-
CONNECTICUT
  
CITY           SKY/WX    TMP DP  RH WIND       PRES   REMARKS
BRADLEY INTL   FAIR      35  31  85 NW5       30.06S WCI  31          
HARTFORD       FAIR      37  35  92 CALM      30.06S                  
BRIDGEPORT     FAIR      44  41  89 NE5       30.03F                  
DANBURY        CLOUDY    34  33  96 CALM      30.05S                  
GROTON         NOT AVBL                                               
NEW HAVEN      FAIR      42  38  85 N3        30.04F                  
CHESTER        FAIR      41  39  93 CALM      30.03F                  
MERIDEN        FAIR      36  34  92 NW3       30.05F                  
WILLIMANTIC    FAIR      33  32  96 N3        30.07S                  
OXFORD         FAIR      37  36  96 CALM      30.04F                  
$$

MEZ002-015-021-024-NHZ003-005-008-011-012-014-VTZ005-008-201000-
NORTHERN NEW ENGLAND
  
CITY           SKY/WX    TMP DP  RH WIND       PRES   REMARKS
PORTLAND ME    FAIR      34  31  88 CALM      30.09R                  
BANGOR ME      FAIR      32  31  96 CALM      30.09R                  
CONCORD NH     FAIR      30  27  88 CALM      30.09S                  
MANCHESTER NH  FAIR      36  33  89 N3        30.06F                  
NASHUA NH      FAIR      32  32 100 NW3       30.08F                  
PORTSMOUTH NH  PTCLDY    35  34  93 NW5       30.07R WCI  31          
JAFFREY NH     FAIR      30  27  88 CALM      30.05F                  
KEENE NH       MOCLDY    28  28 100 CALM      30.08S                  
BURLINGTON VT  FAIR      35  32  88 E5        30.03F WCI  31          
MT. WASHINGTON NOT AVBL                                               
$$

NYZ052-076-201000-
EASTERN NEW YORK
  
CITY           SKY/WX    TMP DP  RH WIND       PRES   REMARKS
ALBANY         MOCLDY    35  32  88 N3        30.05R FOG              
NEW YORK CITY  MOCLDY    52  42  69 E5        30.02S                  
$$
 
ANZALL-201000-
MARINE OBSERVATIONS
  
STATION/POSITION TIME  TEMP    WIND        PRES    VSBY  WAVE
                       AIR SEA DIR/SP/G                  HT/PER
                 (UTC) (F)     (DEG/KT/KT) (MB)    (MI)  (FT/S)
BOSTON BUOY      0750   53 56  360/  4/  6 1016.8          1/ 9
BUZZARDS BAY     0800   57     280/  3/  4 1017.9F
NANTUCKET SOUND  0840   55 56                N/A
MASS BAY-STELLWA NOT AVBL
ISLE OF SHOALS   0800   51      40/  8/ 10 1017.5R
S OF BLOCK IS    0830      60                N/A           2/ 4
$$

......................KEY.........................
  SKY/WX - SKY CONDITION/PRESENT WEATHER
  TMP    - TEMPERATURE IN FAHRENHEIT
  DWPT   - DEWPOINT IN FAHRENHEIT
  RH     - RELATIVE HUMIDITY IN PERCENT
  WIND   - DIRECTION AND SPEED IN MPH
  PRES   - MEAN SEA LEVEL PRESSURE IN INCHES OF HG
  WCI    - WIND CHILL INDEX
  VSB    - VISIBILITY IN MILES
  HX     - HEAT INDEX
  TC     - TEMPERATURE IN CELSIUS
  VRB    - VARIABLE WIND DIRECTION
  N/A    - NOT AVAILABLE
  
      

Other recent Regional Weather Roundups

Tue Oct 22, 2:10am

Tue Oct 22, 2:00am

Tue Oct 22, 1:10am

Tue Oct 22, 1:00am

Tue Oct 22, 12:10am

Tue Oct 22, 12:00am

Mon Oct 21, 11:10pm

Mon Oct 21, 11:00pm

Mon Oct 21, 10:10pm

Mon Oct 21, 10:01pm

Mon Oct 21, 9:10pm

Mon Oct 21, 9:00pm

Mon Oct 21, 8:10pm

Mon Oct 21, 8:00pm

Mon Oct 21, 7:10pm

Mon Oct 21, 7:01pm

Mon Oct 21, 6:10pm

Mon Oct 21, 6:01pm

Mon Oct 21, 5:10pm

Mon Oct 21, 5:01pm

Mon Oct 21, 4:10pm

Mon Oct 21, 4:00pm

Mon Oct 21, 3:10pm

Mon Oct 21, 3:01pm

Mon Oct 21, 2:10pm

Mon Oct 21, 2:00pm

Mon Oct 21, 1:10pm

Mon Oct 21, 1:01pm

Mon Oct 21, 12:10pm

Mon Oct 21, 12:00pm

Mon Oct 21, 11:10am

Mon Oct 21, 11:00am

Mon Oct 21, 10:10am

Mon Oct 21, 10:00am

Mon Oct 21, 9:10am

Mon Oct 21, 9:00am

Mon Oct 21, 7:10am

Mon Oct 21, 7:00am

Mon Oct 21, 6:10am

Mon Oct 21, 6:00am

Mon Oct 21, 5:10am

Mon Oct 21, 5:00am

Mon Oct 21, 4:10am

Mon Oct 21, 4:00am

Mon Oct 21, 3:10am

Mon Oct 21, 3:00am

Mon Oct 21, 2:10am

Mon Oct 21, 2:01am

Mon Oct 21, 1:10am

Mon Oct 21, 1:00am

Mon Oct 21, 12:10am

Mon Oct 21, 12:00am

Sun Oct 20, 11:10pm

Sun Oct 20, 11:00pm

Sun Oct 20, 10:10pm

Sun Oct 20, 10:00pm

Sun Oct 20, 9:10pm

Sun Oct 20, 9:01pm

Sun Oct 20, 8:10pm

Sun Oct 20, 8:00pm

Sun Oct 20, 7:10pm

Sun Oct 20, 7:01pm

Sun Oct 20, 6:10pm

Sun Oct 20, 6:00pm

Sun Oct 20, 5:10pm

Sun Oct 20, 5:00pm

Sun Oct 20, 4:10pm

Sun Oct 20, 4:00pm

Sun Oct 20, 3:10pm

Sun Oct 20, 3:00pm

Sun Oct 20, 2:10pm

Sun Oct 20, 2:01pm

Sun Oct 20, 1:10pm

Sun Oct 20, 1:01pm

Sun Oct 20, 12:10pm

Sun Oct 20, 12:00pm

Sun Oct 20, 11:10am

Sun Oct 20, 11:00am

Sun Oct 20, 10:10am

Sun Oct 20, 10:00am

Sun Oct 20, 9:10am

Sun Oct 20, 9:00am

Sun Oct 20, 8:10am

Sun Oct 20, 8:00am

Sun Oct 20, 7:10am

Sun Oct 20, 7:00am

Sun Oct 20, 6:10am

Sun Oct 20, 6:00am

Sun Oct 20, 5:10am

Sun Oct 20, 4:10am

Sun Oct 20, 4:00am

Sun Oct 20, 3:10am

Sun Oct 20, 3:00am

Sun Oct 20, 2:10am

Sun Oct 20, 2:00am

Sun Oct 20, 1:10am

Sun Oct 20, 1:00am

Sun Oct 20, 12:10am

Sun Oct 20, 12:00am

Sat Oct 19, 11:10pm

Sat Oct 19, 11:00pm

Sat Oct 19, 10:10pm

Sat Oct 19, 10:00pm

Sat Oct 19, 9:10pm

Sat Oct 19, 9:00pm

Sat Oct 19, 8:10pm

Sat Oct 19, 8:00pm

Sat Oct 19, 7:10pm

Sat Oct 19, 7:00pm

Sat Oct 19, 6:10pm

Sat Oct 19, 6:00pm

Sat Oct 19, 5:10pm

Sat Oct 19, 5:00pm

Sat Oct 19, 4:10pm

Sat Oct 19, 4:00pm

Sat Oct 19, 3:10pm

Sat Oct 19, 3:01pm

Sat Oct 19, 2:10pm

Sat Oct 19, 2:00pm

Sat Oct 19, 1:10pm

Sat Oct 19, 1:01pm

Sat Oct 19, 12:10pm

Sat Oct 19, 12:00pm

Sat Oct 19, 11:10am

Sat Oct 19, 11:01am

Sat Oct 19, 10:10am

Sat Oct 19, 10:00am

Sat Oct 19, 9:10am

Sat Oct 19, 9:00am

Sat Oct 19, 8:10am

Sat Oct 19, 8:00am

Sat Oct 19, 7:10am

Sat Oct 19, 7:00am

Sat Oct 19, 6:10am

Sat Oct 19, 6:00am

Sat Oct 19, 5:10am

Sat Oct 19, 5:00am

Sat Oct 19, 4:10am

Sat Oct 19, 4:00am

Sat Oct 19, 3:10am

Sat Oct 19, 3:00am

Meta data:

ID: 704be2ef-ad67-488d-8a5a-c9d287a13077
Link: https://api.weather.gov/products/704be2ef-ad67-488d-8a5a-c9d287a13077